Date String (YYYY-MM-DD hh:mm:ss) UTC,Instrument flags,absolute air pressure of the measurement (hPa),sample flow rate (lpm),inlet stack bypass flow (lpm),air temperature of the measurement (°C),ambient temperature measured by the external sensor (°C),aerosol sample conditioner tube jacket temperature (°C),OPC LED temperature (°C),internal box temperature (°C),relative humidity of the measurement (%),span deviation,mass concentration of particles derived from Lorenz-Mie calculation of OPC scattering (μg/m³),mass concentration of particles derived from Lorenz-Mie calculation of OPC scattering (μg/m³),mass concentration of particles derived from Lorenz-Mie calculation of OPC scattering (μg/m³)
DateTimeUTC,F1_M11,P_M11,Q1_M11,Q2_M11,T1_M11,T2_M11,T3_M11,T4_M11,T5_M11,U1_M11,ZSPAN_M11,X0_M11,X2_M11,X1_M11
2024-04-03 16:00:00,SystemResetWarning,0830.6,4.99,000.00,022.3,021.8,000.0,030.5,024.1,014.3,0000.0,0006.08,0002.89,0001.86
2024-04-03 16:01:00,SystemResetWarning,0830.6,5.00,000.00,022.3,021.8,000.0,030.6,024.1,014.4,0000.0,0006.07,0002.88,0001.87
2024-04-03 16:02:00,SystemResetWarning,0830.6,5.01,000.00,022.3,021.8,000.0,030.6,024.1,013.9,0000.0,0005.90,0002.84,0001.87
2024-04-03 16:03:00,SystemResetWarning,0830.6,5.01,000.00,022.3,021.8,000.0,030.6,024.1,013.4,0000.0,0005.96,0002.87,0001.88
2024-04-03 16:04:00,SystemResetWarning,0830.6,5.00,000.00,022.3,021.8,000.0,030.6,024.1,014.0,0000.0,0005.99,0002.89,0001.87
2024-04-03 16:05:00,SystemResetWarning,0830.6,4.99,000.00,022.3,021.9,000.0,030.6,024.1,013.8,0000.0,0006.16,0002.96,0001.88
2024-04-03 16:06:00,SystemResetWarning,0830.6,5.00,000.00,022.4,021.9,000.0,030.6,024.1,013.3,0000.0,0006.20,0002.98,0001.88
2024-04-03 16:07:00,SystemResetWarning,0830.7,5.00,000.00,022.4,021.9,000.0,030.7,024.2,013.1,0000.0,0006.25,0003.01,0001.88
2024-04-03 16:08:00,SystemResetWarning,0830.6,4.99,000.00,022.4,021.9,000.0,030.7,024.2,013.2,0000.0,0005.69,0002.90,0001.87
2024-04-03 16:09:00,SystemResetWarning,0830.6,5.01,000.00,022.4,021.9,000.0,030.7,024.2,013.2,0000.0,0005.54,0002.86,0001.87
2024-04-03 16:10:00,SystemResetWarning,0830.6,5.01,000.00,022.4,021.9,000.0,030.7,024.2,013.3,0000.0,0005.76,0002.94,0001.87
2024-04-03 16:11:00,SystemResetWarning,0830.6,5.00,000.00,022.4,022.0,000.0,030.7,024.3,013.6,0000.0,0005.24,0002.99,0001.87
2024-04-03 16:12:00,SystemResetWarning,0830.6,4.99,000.00,022.5,022.0,000.0,030.7,024.3,014.1,0000.0,0005.33,0002.98,0001.85
2024-04-03 16:13:00,SystemResetWarning,0830.6,4.99,000.00,022.5,022.0,000.0,030.7,024.3,013.5,0000.0,0005.49,0003.03,0001.87
2024-04-03 16:14:00,SystemResetWarning,0830.6,5.01,000.00,022.5,022.0,000.0,030.8,024.3,013.7,0000.0,0005.53,0003.04,0001.86
2024-04-03 16:15:00,SystemResetWarning,0830.7,5.01,000.00,022.5,022.0,000.0,030.8,024.3,013.5,0000.0,0005.65,0003.08,0001.88
2024-04-03 16:16:00,SystemResetWarning,0830.7,5.00,000.00,022.5,022.1,000.0,030.8,024.3,014.0,0000.0,0005.76,0003.07,0001.87
2024-04-03 16:17:00,SystemResetWarning,0830.6,4.99,000.00,022.6,022.1,000.0,030.8,024.3,013.9,0000.0,0005.73,0003.06,0001.88
2024-04-03 16:18:00,SystemResetWarning,0830.6,4.99,000.00,022.6,022.1,000.0,030.8,024.4,013.6,0000.0,0005.58,0003.04,0001.89
2024-04-03 16:19:00,SystemResetWarning,0830.6,5.02,000.00,022.6,022.1,000.0,030.8,024.4,013.7,0000.0,0005.63,0003.07,0001.90
2024-04-03 16:20:00,SystemResetWarning,0830.6,5.00,000.00,022.6,022.1,000.0,030.9,024.4,013.8,0000.0,0005.62,0003.01,0001.91
2024-04-03 16:21:00,SystemResetWarning,0830.6,5.00,000.00,022.6,022.2,000.0,030.9,024.4,014.1,0000.0,0005.45,0002.94,0001.92
2024-04-03 16:22:00,SystemResetWarning,0830.6,4.99,000.00,022.6,022.2,000.0,030.9,024.4,014.2,0000.0,0006.10,0003.00,0001.94
2024-04-03 16:23:00,SystemResetWarning,0830.6,4.99,000.00,022.7,022.2,000.0,030.9,024.5,013.8,0000.0,0006.99,0003.08,0001.97
2024-04-03 16:24:00,SystemResetWarning,0830.6,4.99,000.00,022.7,022.2,000.0,030.9,024.5,013.6,0000.0,0006.91,0003.05,0001.96
2024-04-03 16:25:00,SystemResetWarning,0830.6,5.00,000.00,022.7,022.3,000.0,030.9,024.5,013.1,0000.0,0007.04,0003.10,0001.96
2024-04-03 16:26:00,SystemResetWarning,0830.6,5.00,000.00,022.7,022.3,000.0,031.0,024.5,013.1,0000.0,0007.16,0003.13,0001.97
2024-04-03 16:27:00,SystemResetWarning,0830.6,5.00,000.00,022.7,022.3,000.0,031.0,024.6,012.9,0000.0,0007.23,0003.12,0001.96
2024-04-03 16:28:00,SystemResetWarning,0830.6,5.01,000.00,022.8,022.3,000.0,031.0,024.6,013.3,0000.0,0008.14,0003.12,0001.96
2024-04-03 16:29:00,SystemResetWarning,0830.6,5.01,000.00,022.8,022.3,000.0,031.0,024.6,013.2,0000.0,0008.27,0003.15,0001.97
2024-04-03 16:30:00,SystemResetWarning,0830.6,5.00,000.00,022.8,022.4,000.0,031.0,024.6,013.3,0000.0,0008.32,0003.14,0001.97
2024-04-03 16:31:00,SystemResetWarning,0830.5,5.00,000.00,022.8,022.4,000.0,031.0,024.6,013.3,0000.0,0008.20,0003.14,0001.96
2024-04-03 16:32:00,SystemResetWarning,0830.5,5.00,000.00,022.8,022.4,000.0,031.1,024.6,013.7,0000.0,0008.21,0003.16,0001.97
2024-04-03 16:33:00,SystemResetWarning,0830.5,4.99,000.00,022.9,022.4,000.0,031.1,024.7,013.2,0000.0,0007.83,0003.12,0001.96
2024-04-03 16:34:00,SystemResetWarning,0830.5,4.99,000.00,022.9,022.4,000.0,031.1,024.7,013.6,0000.0,0007.21,0003.04,0001.94
2024-04-03 16:35:00,SystemResetWarning,0830.5,5.00,000.00,022.9,022.5,000.0,031.1,024.7,013.8,0000.0,0007.26,0003.08,0001.94
2024-04-03 16:36:00,SystemResetWarning,0830.5,5.02,000.00,022.9,022.5,000.0,031.1,024.7,013.1,0000.0,0007.23,0003.08,0001.96
2024-04-03 16:37:00,SystemResetWarning,0830.5,5.01,000.00,022.9,022.5,000.0,031.2,024.8,010.9,0000.0,0007.15,0003.02,0001.96
2024-04-03 16:38:00,SystemResetWarning,0830.6,4.99,000.00,023.0,022.5,000.0,031.2,024.8,010.9,0000.0,0007.13,0003.10,0001.98
2024-04-03 16:39:00,SystemResetWarning,0830.4,5.00,000.00,023.0,022.5,000.0,031.2,024.8,010.5,0000.0,0005.79,0003.10,0001.99
2024-04-03 16:40:00,SystemResetWarning,0830.4,5.00,000.00,023.0,022.5,000.0,031.2,024.8,010.8,0000.0,0005.72,0003.11,0001.98
2024-04-03 16:41:00,SystemResetWarning,0830.4,4.99,000.00,023.0,022.6,000.0,031.2,024.8,010.6,0000.0,0005.96,0003.17,0002.00
2024-04-03 16:42:00,SystemResetWarning,0830.3,5.01,000.00,023.0,022.6,000.0,031.3,024.9,010.9,0000.0,0006.45,0003.26,0002.02
2024-04-03 16:43:00,SystemResetWarning,0830.2,5.01,000.00,023.1,022.6,000.0,031.3,024.9,011.1,0000.0,0006.67,0003.29,0002.03
2024-04-03 16:44:00,SystemResetWarning,0830.3,5.00,000.00,023.1,022.6,000.0,031.3,024.9,011.3,0000.0,0007.01,0003.34,0002.03
2024-04-03 16:45:00,SystemResetWarning,0830.3,4.99,000.00,023.1,022.6,000.0,031.3,024.9,011.7,0000.0,0007.02,0003.35,0002.05
2024-04-03 16:46:00,SystemResetWarning,0830.3,5.00,000.00,023.1,022.7,000.0,031.3,024.9,011.3,0000.0,0007.10,0003.34,0002.06
2024-04-03 16:47:00,SystemResetWarning,0830.3,5.00,000.00,023.1,022.7,000.0,031.4,024.9,011.0,0000.0,0007.25,0003.34,0002.06
2024-04-03 16:48:00,SystemResetWarning,0830.3,5.00,000.00,023.2,022.7,000.0,031.4,025.0,011.4,0000.0,0007.77,0003.37,0002.06
2024-04-03 16:49:00,SystemResetWarning,0830.3,5.02,000.00,023.2,022.7,000.0,031.4,025.0,010.4,0000.0,0007.64,0003.35,0002.06
2024-04-03 16:50:00,SystemResetWarning,0830.3,5.01,000.00,023.2,022.7,000.0,031.4,025.0,010.7,0000.0,0007.72,0003.40,0002.08
2024-04-03 16:51:00,SystemResetWarning,0830.2,4.99,000.00,023.2,022.8,000.0,031.4,025.0,010.5,0000.0,0007.69,0003.40,0002.10
2024-04-03 16:52:00,SystemResetWarning,0830.2,4.99,000.00,023.2,022.8,000.0,031.4,025.0,011.1,0000.0,0007.70,0003.40,0002.12
2024-04-03 16:53:00,SystemResetWarning,0830.2,5.01,000.00,023.2,022.8,000.0,031.5,025.0,010.9,0000.0,0007.75,0003.40,0002.12
2024-04-03 16:54:00,SystemResetWarning,0830.2,5.00,000.00,023.3,022.8,000.0,031.5,025.0,010.7,0000.0,0007.78,0003.38,0002.11
2024-04-03 16:55:00,SystemResetWarning,0830.2,5.00,000.00,023.3,022.8,000.0,031.5,025.1,010.9,0000.0,0007.83,0003.36,0002.11
2024-04-03 16:56:00,SystemResetWarning,0830.3,5.01,000.00,023.3,022.9,000.0,031.5,025.1,010.9,0000.0,0007.99,0003.38,0002.11
2024-04-03 16:57:00,SystemResetWarning,0830.3,5.00,000.00,023.3,022.9,000.0,031.5,025.1,010.8,0000.0,0008.11,0003.43,0002.10
2024-04-03 16:58:00,SystemResetWarning,0830.3,5.00,000.00,023.3,022.9,000.0,031.5,025.1,010.7,0000.0,0008.32,0003.51,0002.11
2024-04-03 16:59:00,SystemResetWarning,0830.3,5.01,000.00,023.4,022.9,000.0,031.6,025.1,010.0,0000.0,0008.28,0003.54,0002.10
